Location: B?dargowo
(53.3916°N, 14.4413°E)
Time: 00:51:38
(UTC+00:00)

Cosmos 724 - Pass Details

Date: 05 February 2023
Orbit: 848 x 946 km, 65.6° (Epoch: 20 March)

Event Time Altitude Azimuth Distance (km) Brightness Sun altitude
Rises 16:37:39 0° 217° (SW) 3,472 8.4 -7.1°
Reaches altitude 10° 16:40:06 10° 217° (SW) 2,551 7.6 -7.4°
Maximum altitude 16:46:02 83° 131° (SE) 920 4.4 -8.3°
Drops below altitude 10° 16:52:11 10° 44° (NE) 2,633 6.3 -9.2°
Enters shadow 16:53:06 - 44° (NE) 2,974 6.5 -9.3°
